Dewpoint
-0 0 -2 -3 -3 -5 -5 -6 -7 -7 -8 -8 -8 -8 -7 -5 -7 -8 -8 -8 -8 -8 -8 -8 -8 -7 -6 -5 -5 -5 -5 -5 -4 -3 -2 -2 -2 -0 0 1 1 1 1 1 1 3 3 3 3 3 2 2 1 1 1 1 1 0 2 3 4 7 9 10 8 9 10 10 11 16 17 18 16 18 19 22 21 25 26 27 28 30 30 29 28
-2 -2 -3 -4 -4 -5 -6 -7 -7 -7 -8 -8 -7 -8 -8 -8 -8 -8 -8 -8 -8 -8 -8 -3 -7 -6 -6 -6 -6 -6 -5 -5 -3 -3 -2 -1 -1 0 1 1 1 1 1 1 1 3 3 4 3 3 3 3 3 3 4 4 5 3 3 4 3 4 5 8 8 9 9 9 9 13 17 17 16 19 16 17 14 22 17 21 24 29 29 28 29
-3 -4 -4 -5 -5 -5 -7 -7 -7 -7 -7 -7 -8 -7 -8 -9 -9 -8 -8 -8 -7 -7 -7 -6 -5 -6 -5 -5 -5 -4 -4 -3 -2 -2 -2 -2 -1 1 2 2 2 2 3 2 2 4 4 4 4 4 3 3 3 3 3 4 4 4 3 3 2 2 3 4 7 8 8 7 7 10 16 18 17 16 18 16 18 20 18 18 24 27 28 26 29
-4 -4 -4 -5 -6 -6 -7 -7 -7 -7 -7 -7 -8 -8 -8 -8 -7 -6 -6 -6 -6 -7 -6 -7 -6 -6 -6 -6 -5 -5 -4 -2 -2 -2 -1 -1 0 2 2 3 4 5 4 5 5 5 5 4 4 4 4 4 4 2 3 3 3 3 3 2 2 2 1 0 6 8 8 8 8 8 10 16 18 17 16 18 18 18 19 21 26 21 22 26 28
-4 -5 -5 -6 -6 -7 -7 -7 -7 -7 -7 -7 -8 -7 -7 -7 -7 -6 -7 -7 -7 -7 -7 -6 -6 -6 -6 -5 -5 -5 -3 -3 -2 -2 -2 -2 0 1 2 3 3 5 5 5 7 6 5 5 5 5 5 4 4 3 3 3 3 3 2 2 1 1 1 2 4 6 7 7 7 7 8 11 17 16 16 16 17 18 19 19 18 20 24 27 27
-4 -5 -6 -7 -7 -7 -7 -8 -7 -7 -7 -8 -8 -7 -7 -7 -7 -7 -7 -7 -7 -6 -7 -6 -5 -6 -5 -5 -4 -3 -3 -3 -3 -3 -1 0 1 3 4 5 4 5 5 4 5 5 5 5 5 5 6 5 4 5 4 4 4 3 3 3 2 2 2 2 -0 3 7 7 8 7 7 8 13 15 16 15 16 16 16 18 20 22 23 23 24
-4 -5 -6 -7 -7 -7 -7 -7 -7 -7 -7 -7 -7 -7 -7 -7 -7 -7 -6 -6 -7 -7 -6 -7 -6 -5 -4 -4 -3 -2 -2 -3 -3 -2 -1 0 3 4 4 4 4 4 5 5 5 5 6 6 6 6 6 6 5 5 5 4 4 3 3 4 4 4 3 3 3 3 4 5 5 5 5 7 12 15 16 16 15 15 15 15 16 19 23 22 21
-5 -5 -5 -6 -7 -6 -7 -7 -7 -6 -6 -6 -6 -6 -6 -7 -6 -6 -5 -6 -5 -6 -6 -5 -5 -4 -4 -3 -3 -3 -3 -2 -2 -0 2 2 3 3 3 4 4 5 5 6 6 6 7 7 7 7 7 7 7 6 6 5 4 3 3 3 4 4 3 3 4 3 2 3 1 2 5 5 4 6 12 14 14 15 17 16 13 13 17 20 21
-4 -5 -6 -6 -6 -6 -6 -6 -6 -5 -5 -6 -5 -5 -5 -5 -4 -4 -4 -5 -3 -5 -4 -3 -3 -3 -3 -3 -3 -2 -2 -1 0 1 2 2 3 2 3 3 4 4 5 5 6 7 8 9 9 9 9 11 12 11 10 10 5 4 4 4 3 3 3 3 3 2 2 2 2 2 2 3 3 6 10 14 14 13 14 17 18 17 18 18 19
-5 -6 -6 -6 -6 -6 -4 -4 -5 -5 -4 -5 -5 -4 -4 -3 -3 -1 -3 -3 -1 -1 -1 -2 -1 -2 -2 -2 -2 -2 -2 -1 2 8 9 3 2 2 2 3 3 4 5 6 7 8 8 9 11 13 13 14 14 15 16 15 14 9 4 3 3 3 3 3 3 2 3 2 2 3 3 4 3 4 8 11 14 15 16 16 15 15 17 16 16
-4 -5 -5 -5 -5 -5 -4 -4 -4 -4 -4 -3 -1 -3 -3 -2 -1 -2 -3 -1 -1 -1 -0 -1 -1 -2 -2 -2 -2 -3 -2 -1 8 11 14 15 9 4 4 4 5 5 6 7 8 9 10 11 11 13 14 15 15 16 17 17 18 17 16 12 9 5 3 3 3 3 3 2 2 4 3 3 3 3 5 7 11 14 14 15 15 15 14 11 10
-3 -3 -4 -4 -3 -3 -4 -3 -3 -2 -1 0 0 -0 -1 -1 -1 -1 -2 -2 -2 -1 -1 -1 -2 -2 -2 -2 -3 -3 -2 5 10 12 14 15 16 10 7 6 7 8 8 9 9 10 11 12 13 13 13 14 14 14 16 18 18 18 18 18 16 15 12 5 3 2 3 3 3 4 5 4 5 6 6 9 8 10 13 16 16 15 15 14 14
-2 -1 -3 -3 -3 -3 -2 -2 -1 1 1 0 1 1 0 -1 -0 -1 -2 -2 -1 -2 -2 -2 -2 -3 -3 -3 -3 -3 -2 6 11 13 15 16 17 16 12 12 12 12 12 13 13 13 13 14 15 15 14 16 16 15 13 14 17 18 18 18 18 19 18 16 13 6 4 4 3 4 4 5 5 6 8 8 11 10 11 13 16 16 16 14 13
-1 -0 -1 -2 -1 -2 -0 1 1 2 1 1 1 0 -0 -1 -1 -1 -1 -2 -2 -3 -3 -3 -3 -3 -3 -3 -3 -3 -3 4 11 13 14 16 17 16 13 13 13 13 13 14 15 16 16 17 18 17 16 15 15 15 14 12 12 12 14 15 16 16 18 19 19 17 12 6 5 3 5 6 5 7 10 12 11 10 10 11 14 15 15 15 17
1 0 0 0 1 0 0 1 1 1 1 1 0 -0 -1 -1 -2 -2 -2 -3 -3 -4 -4 -4 -4 -4 -4 -3 -3 -4 -4 7 11 13 15 16 17 17 13 13 14 14 14 15 16 16 17 19 19 19 18 15 14 15 13 12 11 10 10 11 12 13 14 14 15 17 16 12 9 9 9 10 9 9 10 12 12 12 13 14 15 15 15 17 17
2 2 1 1 2 1 1 2 1 2 1 0 -1 -1 -2 -2 -3 -3 -3 -4 -4 -4 -5 -4 -5 -5 -4 -4 -5 -5 -5 9 12 13 15 16 17 13 13 14 14 15 15 17 17 19 19 19 20 19 18 16 16 19 17 13 12 10 9 9 9 10 10 14 16 17 16 16 15 13 12 13 15 12 12 11 11 12 12 13 12 11 11 11 10
3 2 2 2 1 1 2 1 2 1 1 -0 -1 -2 -2 -3 -3 -3 -4 -4 -4 -5 -5 -5 -5 -5 -5 -5 -5 -5 -5 3 11 13 15 16 16 12 13 13 14 15 16 17 18 17 17 17 19 19 18 17 18 20 21 19 12 11 9 9 9 9 9 10 16 20 20 20 20 20 21 21 21 21 21 20 16 14 12 10 10 10 9 8 8
6 5 3 3 2 2 2 3 3 1 1 0 -1 -2 -2 -2 -3 -3 -4 -5 -5 -5 -5 -6 -6 -5 -5 -6 -5 -5 -5 1 10 13 15 16 15 12 12 13 14 15 18 17 16 15 16 18 19 19 19 18 20 22 22 21 14 11 11 10 9 8 9 10 10 12 19 21 21 21 21 20 20 21 21 21 21 21 14 11 11 11 10 9 8
9 7 5 4 4 3 2 2 2 2 1 0 -1 -1 -2 -3 -3 -3 -5 -5 -5 -6 -5 -6 -6 -6 -6 -5 -1 -2 -2 2 10 13 15 16 15 14 14 14 15 15 14 14 14 14 13 15 17 19 19 20 22 22 20 20 18 13 12 11 10 9 10 11 11 10 11 13 15 18 19 20 20 19 19 20 20 19 19 16 14 12 11 10 10
11 9 7 5 4 3 4 3 3 2 1 0 -1 -2 -2 -3 -4 -4 -5 -5 -6 -6 -7 -7 -7 -7 -5 -4 -3 -1 -0 1 3 12 14 15 16 13 14 15 13 12 12 11 10 11 12 13 14 18 18 19 19 20 21 21 21 18 16 13 12 11 13 12 12 12 12 12 12 14 15 16 18 19 21 21 21 19 19 19 18 15 13 12 12
12 9 7 5 4 4 3 3 2 1 1 -0 -1 -3 -3 -4 -4 -5 -6 -6 -7 -7 -8 -7 -7 -6 -5 -4 -3 -2 -1 -0 1 12 14 15 17 17 15 13 11 10 9 10 11 10 10 11 13 16 18 18 18 18 18 19 19 19 19 16 15 16 17 14 14 17 14 13 12 12 12 13 14 15 16 17 18 19 19 19 18 18 17 15 14
12 8 6 5 4 3 3 2 1 1 0 -1 -2 -4 -4 -4 -5 -6 -7 -7 -8 -8 -8 -8 -8 -7 -6 -4 -3 -2 -0 2 1 8 13 15 17 18 15 13 12 10 10 10 10 11 11 12 13 14 16 17 17 18 18 18 18 17 19 22 23 22 20 18 16 15 15 15 13 13 12 12 12 12 13 14 15 16 18 19 19 18 18 18 16
11 7 6 4 3 3 2 1 1 0 -1 -2 -3 -5 -5 -6 -6 -7 -7 -8 -8 -9 -9 -9 -9 -8 -7 -5 -3 -2 -1 0 6 6 12 16 17 16 16 14 13 12 11 10 11 12 13 15 16 18 17 17 18 18 18 18 18 17 19 20 21 20 20 19 20 18 16 16 15 14 13 12 12 12 12 12 13 14 14 16 18 19 19 18 18
9 6 5 4 3 2 1 0 -0 -1 -2 -3 -4 -6 -6 -7 -7 -8 -9 -9 -11 -11 -11 -10 -9 -9 -8 -6 -3 -1 0 1 6 11 12 14 13 13 13 13 13 11 11 11 12 12 12 12 13 14 14 15 16 16 17 18 18 20 20 20 20 19 17 17 17 19 19 17 16 15 14 14 13 13 12 12 12 13 13 15 15 17 18 18 19
8 5 4 3 2 1 0 -1 -1 -2 -3 -4 -6 -7 -8 -8 -9 -9 -9 -10 -11 -12 -11 -9 -8 -7 -6 -5 -3 -2 0 4 4 7 10 10 11 11 11 11 11 11 10 12 14 14 15 16 16 16 16 16 18 17 15 15 16 16 16 16 15 12 12 13 14 15 15 16 17 16 15 15 15 14 15 14 13 13 13 13 14 15 16 17 18
7 4 3 2 1 -0 -1 -2 -3 -3 -4 -5 -6 -7 -9 -9 -10 -10 -10 -11 -11 -11 -10 -8 -7 -6 -6 -5 -4 -2 1 2 1 -0 6 8 9 9 9 10 10 12 13 12 13 15 15 15 16 16 14 14 13 12 11 11 13 13 13 13 9 10 11 12 13 13 13 13 14 15 16 17 16 16 15 14 13 12 12 12 12 12 13 13 13
7 4 2 1 -0 -1 -2 -4 -5 -5 -6 -7 -7 -8 -9 -10 -10 -11 -11 -11 -11 -10 -9 -8 -7 -6 -5 -4 -3 -0 2 -0 -0 -2 -1 -2 -2 1 4 6 10 12 13 11 13 11 11 13 13 12 12 12 12 10 10 8 5 5 4 6 8 10 11 12 12 11 12 12 13 12 14 15 16 16 15 14 14 14 13 13 12 12 12 12 12
6 5 3 1 -2 -3 -4 -5 -6 -7 -7 -8 -9 -9 -10 -10 -11 -11 -10 -10 -10 -10 -9 -8 -7 -6 -5 -3 -1 0 1 -1 -1 -1 -1 -1 0 2 4 6 7 8 9 9 10 10 7 9 6 2 2 1 1 0 -0 -0 1 2 2 3 6 8 11 14 15 15 15 15 14 15 16 17 18 17 16 16 15 15 15 14 13 13 12 12 10
6 5 2 -0 -2 -4 -4 -5 -6 -7 -8 -8 -9 -10 -11 -11 -11 -10 -9 -8 -8 -9 -9 -8 -6 -5 -3 -2 -1 0 1 0 0 9 4 8 6 5 6 7 9 10 12 13 5 3 1 -2 -3 -2 -3 -2 -3 -5 -5 -5 -4 -4 -3 1 2 3 7 7 7 8 8 10 11 13 14 15 16 18 18 17 16 16 16 15 15 14 14 12 11
5 4 2 -0 -2 -5 -5 -5 -7 -8 -9 -10 -9 -9 -7 -3 -8 -11 -10 -3 -2 5 2 -7 -6 -5 -4 -2 1 2 1 1 9 10 10 11 11 11 12 11 12 13 14 11 5 -4 -7 -8 -7 -6 -7 -8 -8 -8 -8 -9 -8 -8 -7 -0 -2 0 3 3 3 3 5 7 9 10 11 13 14 16 18 18 17 17 17 17 16 16 15 13 12
3 4 1 -1 -3 -5 -5 -7 -8 -8 -8 -9 -9 -10 -10 -6 6 7 -1 -2 1 7 9 11 11 7 0 -1 3 10 11 10 8 8 9 10 9 9 8 9 13 13 11 1 -7 -9 -10 -9 -10 -9 -9 -9 -10 -10 -10 -11 -10 -10 -9 -8 -6 -3 -2 -2 -1 -0 1 3 6 8 9 10 11 13 14 16 19 18 18 18 17 17 16 15 14
2 3 2 -0 -3 -5 -5 -7 -8 -8 -9 -9 -10 -10 -11 -11 -10 0 9 6 6 8 9 11 12 13 13 10 8 6 6 5 6 8 9 9 8 8 9 10 13 12 10 7 -10 -11 -12 -11 -11 -11 -11 -11 -12 -11 -12 -12 -12 -12 -11 -10 -9 -7 -6 -7 -5 -4 -3 1 5 5 6 7 9 11 12 14 16 18 19 19 18 18 17 17 16
1 3 3 -1 -4 -5 -6 -8 -9 -9 -10 -10 -10 -11 -11 -11 -11 -10 -5 8 10 10 10 10 11 11 11 11 11 8 7 7 8 8 8 8 9 8 11 13 11 8 8 -7 -11 -12 -12 -12 -13 -13 -13 -13 -14 -13 -13 -13 -13 -13 -13 -12 -11 -10 -9 -8 -6 -5 -1 2 3 2 4 5 7 8 10 11 13 14 18 19 19 19 18 18 18
2 2 2 -1 -4 -6 -7 -8 -9 -10 -10 -11 -11 -11 -11 -11 -10 -9 -9 -7 -4 2 7 7 9 9 9 8 7 6 6 7 7 6 8 8 7 7 10 6 10 8 -0 -13 -13 -13 -13 -14 -13 -14 -14 -13 -14 -13 -14 -14 -14 -14 -13 -13 -12 -11 -10 -8 -7 -4 -2 -2 -2 -1 1 2 4 5 6 8 9 11 13 17 19 19 19 18 18
1 1 -0 -2 -3 -5 -7 -7 -8 -10 -10 -11 -11 -11 -11 -10 -10 -9 -9 -8 -7 -5 -6 -9 -0 4 2 3 4 4 5 7 6 7 7 7 6 7 9 -7 -12 -14 -14 -14 -14 -15 -14 -15 -16 -15 -15 -15 -15 -15 -15 -15 -14 -14 -14 -12 -12 -11 -10 -9 -7 -6 -7 -7 -7 -4 -2 -2 -1 2 3 3 5 8 11 13 15 18 19 19 19
0 1 0 -2 -4 -5 -6 -7 -8 -9 -10 -11 -11 -11 -10 -10 -10 -9 -8 -8 -8 -8 -9 -13 -14 -4 3 4 3 3 7 6 6 8 7 6 4 5 -8 -14 -14 -15 -15 -15 -15 -15 -15 -16 -16 -16 -16 -16 -16 -16 -16 -15 -14 -14 -13 -12 -13 -12 -11 -9 -9 -10 -10 -10 -9 -8 -7 -8 -5 -4 -2 0 3 6 7 9 12 14 16 19 19
-0 0 -1 -3 -4 -5 -7 -8 -8 -9 -9 -10 -10 -10 -10 -10 -9 -9 -8 -8 -8 -10 -13 -15 -14 -13 -4 -4 0 3 6 8 10 8 6 5 3 -13 -17 -17 -17 -16 -16 -16 -15 -16 -18 -18 -18 -17 -17 -17 -17 -17 -16 -16 -16 -15 -12 -14 -14 -13 -10 -10 -9 -11 -12 -11 -12 -11 -11 -11 -10 -8 -6 -3 -0 2 5 7 9 11 13 15 15
-1 -1 -1 -4 -5 -6 -8 -9 -9 -9 -9 -10 -10 -10 -10 -10 -9 -9 -9 -10 -9 -10 -12 -13 -5 -12 -11 -9 -1 -4 -6 -0 3 2 -0 -2 -17 -17 -17 -18 -18 -18 -18 -17 -17 -19 -19 -19 -19 -19 -18 -18 -17 -17 -17 -17 -16 -16 -16 -16 -14 -14 -7 -12 -12 -13 -12 -12 -12 -12 -12 -12 -11 -10 -8 -6 -4 -1 2 4 5 7 9 11 13
-2 -2 -3 -5 -6 -7 -8 -9 -9 -9 -10 -10 -11 -11 -10 -10 -10 -9 -9 -10 -8 -9 -11 -12 -10 -12 -13 -15 -14 -9 -9 -16 -15 -18 -18 -19 -21 -21 -20 -19 -19 -19 -20 -19 -18 -19 -21 -20 -19 -18 -18 -19 -17 -18 -17 -16 -16 -16 -16 -16 -15 -15 -15 -14 -14 -13 -13 -13 -13 -13 -12 -12 -12 -11 -9 -8 -6 -2 -0 2 4 5 6 7 9
-3 -5 -5 -5 -7 -8 -9 -9 -10 -10 -10 -10 -11 -11 -10 -10 -10 -10 -10 -10 -11 -10 -11 -12 -12 -13 -14 -15 -13 -16 -14 -16 -17 -18 -19 -19 -20 -22 -21 -20 -20 -19 -20 -21 -21 -21 -21 -21 -21 -21 -20 -20 -19 -18 -17 -17 -16 -15 -16 -16 -16 -16 -15 -15 -14 -14 -14 -13 -13 -13 -13 -12 -11 -10 -9 -7 -5 -3 -1 0 1 3 4 5 7
-5 -7 -6 -6 -8 -9 -9 -10 -10 -10 -10 -10 -11 -11 -10 -10 -10 -9 -10 -11 -11 -11 -11 -12 -12 -13 -13 -9 -2 -6 -15 -17 -17 -17 -18 -18 -20 -21 -22 -21 -21 -20 -19 -20 -21 -21 -21 -21 -21 -20 -21 -19 -19 -18 -18 -18 -17 -17 -16 -15 -16 -15 -16 -15 -15 -14 -14 -14 -14 -13 -13 -12 -11 -10 -9 -8 -3 -3 -3 -2 -0 1 2 4 5
-6 -7 -8 -8 -8 -9 -9 -10 -10 -10 -10 -10 -10 -10 -10 -10 -9 -10 -10 -11 -11 -11 -11 -12 -13 -14 -9 -3 0 2 -14 -18 -17 -17 -17 -18 -19 -19 -20 -21 -23 -23 -23 -22 -23 -21 -21 -21 -21 -20 -20 -20 -20 -19 -18 -20 -18 -18 -17 -17 -17 -16 -16 -16 -15 -15 -15 -14 -14 -14 -13 -12 -10 -9 -9 -5 -8 -7 -5 -3 -2 -1 1 2 4
-7 -8 -8 -8 -9 -9 -10 -10 -10 -10 -11 -11 -11 -10 -10 -9 -9 -9 -9 -10 -10 -11 -11 -12 -12 -14 -12 -7 -6 -2 -15 -16 -15 -17 -18 -19 -20 -19 -20 -21 -22 -23 -24 -24 -24 -23 -22 -22 -21 -21 -20 -19 -19 -19 -18 -19 -18 -19 -18 -18 -17 -16 -17 -17 -17 -16 -15 -15 -15 -14 -13 -13 -12 -11 -11 -9 -8 -7 -6 -5 -4 -2 -0 1 2
-8 -8 -8 -9 -8 -9 -9 -9 -10 -10 -11 -10 -10 -10 -9 -9 -9 -9 -9 -10 -10 -10 -11 -11 -12 -12 -12 -11 -12 -15 -17 -17 -18 -18 -18 -18 -19 -19 -21 -22 -24 -24 -24 -24 -23 -23 -24 -23 -21 -22 -22 -21 -21 -21 -19 -18 -18 -18 -19 -19 -18 -17 -18 -18 -17 -17 -16 -16 -15 -14 -14 -13 -13 -12 -11 -10 -9 -9 -8 -6 -5 -3 -2 -1 0
-9 -9 -9 -9 -9 -9 -9 -9 -9 -9 -9 -10 -9 -9 -9 -9 -9 -9 -9 -10 -10 -10 -11 -11 -12 -12 -13 -15 -16 -16 -17 -18 -17 -17 -16 -17 -18 -19 -21 -23 -25 -22 -22 -22 -22 -24 -25 -23 -23 -22 -21 -22 -22 -21 -20 -19 -18 -18 -17 -18 -19 -18 -19 -18 -17 -16 -15 -15 -15 -15 -14 -14 -14 -14 -13 -11 -9 -9 -9 -8 -6 -4 -3 -2 -1
-9 -9 -9 -9 -9 -9 -9 -9 -8 -8 -8 -9 -9 -9 -9 -9 -9 -9 -9 -10 -10 -10 -11 -12 -12 -12 -13 -13 -15 -15 -17 -18 -17 -17 -17 -18 -19 -20 -23 -23 -24 -25 -23 -22 -22 -22 -21 -23 -22 -22 -21 -22 -22 -21 -21 -21 -20 -18 -18 -19 -18 -17 -17 -17 -16 -16 -16 -16 -15 -15 -14 -14 -14 -13 -12 -12 -11 -10 -9 -8 -6 -5 -3 -2 -2
-9 -10 -9 -9 -10 -9 -9 -9 -9 -9 -9 -9 -9 -9 -9 -9 -9 -10 -9 -10 -11 -11 -11 -12 -13 -13 -13 -14 -15 -15 -16 -17 -17 -17 -17 -19 -20 -21 -22 -24 -23 -23 -23 -22 -22 -21 -22 -21 -22 -23 -22 -22 -21 -21 -22 -21 -21 -21 -18 -18 -19 -19 -19 -17 -17 -17 -17 -16 -14 -14 -15 -15 -15 -14 -14 -13 -12 -12 -11 -10 -8 -7 -5 -4 -2
-10 -9 -10 -9 -10 -10 -10 -10 -10 -9 -10 -10 -9 -9 -9 -10 -10 -10 -10 -10 -10 -11 -11 -12 -13 -13 -13 -14 -14 -15 -15 -16 -17 -17 -18 -19 -21 -22 -23 -23 -21 -21 -23 -22 -23 -22 -22 -23 -23 -23 -23 -22 -21 -22 -22 -22 -22 -21 -21 -21 -20 -19 -17 -16 -19 -19 -17 -15 -15 -15 -15 -16 -16 -15 -15 -13 -13 -12 -12 -11 -9 -8 -6 -4 -2
-11 -10 -10 -10 -10 -10 -10 -10 -10 -10 -10 -10 -10 -10 -10 -10 -10 -11 -11 -10 -11 -11 -11 -12 -13 -13 -13 -14 -15 -15 -16 -16 -17 -17 -18 -19 -20 -22 -23 -23 -20 -22 -21 -21 -22 -23 -24 -24 -23 -23 -22 -23 -23 -23 -22 -22 -22 -22 -21 -22 -20 -17 -17 -17 -17 -18 -16 -15 -16 -16 -17 -18 -17 -17 -15 -14 -14 -14 -13 -13 -12 -9 -7 -5 -3
-11 -10 -10 -10 -11 -11 -10 -10 -10 -10 -10 -10 -10 -11 -10 -10 -10 -11 -11 -11 -11 -12 -12 -12 -13 -14 -14 -15 -15 -16 -16 -16 -16 -17 -18 -19 -20 -21 -22 -22 -22 -22 -21 -21 -22 -23 -24 -25 -25 -24 -22 -23 -23 -23 -24 -23 -23 -23 -23 -22 -17 -17 -18 -17 -17 -17 -16 -17 -17 -18 -18 -18 -18 -18 -17 -16 -15 -15 -15 -13 -12 -11 -9 -8 -7
-11 -11 -11 -11 -11 -11 -11 -11 -11 -11 -11 -11 -11 -11 -11 -11 -11 -11 -11 -12 -12 -12 -12 -13 -13 -15 -15 -14 -15 -15 -16 -16 -17 -17 -19 -19 -20 -21 -20 -21 -21 -21 -23 -23 -23 -24 -25 -25 -24 -23 -23 -22 -23 -24 -25 -25 -25 -24 -20 -17 -18 -18 -18 -18 -19 -17 -16 -14 -18 -19 -19 -19 -20 -19 -16 -15 -15 -15 -13 -13 -13 -13 -12 -10 -8